Find Starlink 11508

NORAD ID: 62515 Int'l Des: 2025-004 Owner: SPXS Country: US Constellation: starlink operational
LEOCIRCULAR

Live Position

Loading 3D Globe...

About Starlink 11508

Description loading...

Upcoming Passes

Passes for default location (London). Set your location on the main map for personalized predictions.

Altitude History

Loading altitude history...

Two-Line Element Set

1 62515U 25004E 26125.93451091 .00218876 00000-0 16596-2 0 9999
2 62515 43.0000 85.4978 0002759 249.5838 110.4733 15.70912567 76219
Epoch: May 5, 2026 • Age: 6 hours

Current Status

Altitude 358.3 km
Velocity 7.70 km/s
Sub-Earth Point -12.90°S, 139.03°E
Launch Date Jan 8, 2025
Age 1.3 years
Type internet

Technical Details

Classification Payload
Mass 960.00 kg
Dry Mass 910.00 kg
Total Mass 960.00 kg
Length 0.30 m
Diameter 4.10 m
Span 29.00 m
Shape Box + pan
Manufacturer SPXS
Bus Type Starlink V2MD
Phase Status In Orbit
Owner/State SPXS/US

Most Searched